This is the latest recevied weather packets stored in our database for station/object IW2NTF-3. If no packets are shown the sender has not sent any weather packets the latest 1 day(s).
| Time | Temp. | Humidity | Pressure | Rain* | Wind** | Luminosity | Snow |
|---|---|---|---|---|---|---|---|
| 1777973763 | 13.33° C | 86% | 1013.2 hPa | 0 mm | 1.34 m/s, 336° | 141 W/m² | - |
| 1777973703 | 13.33° C | 86% | 1013.3 hPa | 0 mm | 1.34 m/s, 335° | 128 W/m² | - |
| 1777973643 | 13.33° C | 86% | 1013.2 hPa | 0 mm | 1.79 m/s, 335° | 125 W/m² | - |
| 1777973583 | 13.33° C | 86% | 1013.2 hPa | 0 mm | 1.34 m/s, 335° | 121 W/m² | - |
| 1777973523 | 13.33° C | 86% | 1013.3 hPa | 0 mm | 1.34 m/s, 335° | 118 W/m² | - |
| 1777973463 | 13.33° C | 86% | 1013.3 hPa | 0 mm | 1.34 m/s, 333° | 109 W/m² | - |
| 1777973404 | 13.33° C | 86% | 1013.3 hPa | 0 mm | 1.34 m/s, 332° | 98 W/m² | - |
| 1777973343 | 13.89° C | 86% | 1013.3 hPa | 0 mm | 1.34 m/s, 333° | 86 W/m² | - |
| 1777973284 | 13.89° C | 86% | 1013.3 hPa | 0 mm | 1.34 m/s, 334° | 81 W/m² | - |
| 1777973223 | 13.33° C | 86% | 1013.3 hPa | 0 mm | 1.34 m/s, 338° | 70 W/m² | - |
| 1777973163 | 13.89° C | 86% | 1013.3 hPa | 0 mm | 1.34 m/s, 340° | 60 W/m² | - |
| 1777973104 | 13.89° C | 86% | 1013.2 hPa | 0 mm | 1.79 m/s, 344° | 49 W/m² | - |
| 1777973044 | 13.89° C | 86% | 1013.3 hPa | 0 mm | 1.79 m/s, 348° | 44 W/m² | - |
| 1777972983 | 13.89° C | 86% | 1013.3 hPa | 0 mm | 1.79 m/s, 352° | 39 W/m² | - |
| 1777972923 | 13.89° C | 86% | 1013.3 hPa | 0 mm | 1.79 m/s, 354° | 39 W/m² | - |
| 1777972863 | 13.89° C | 87% | 1013.2 hPa | 0 mm | 1.79 m/s, 357° | 39 W/m² | - |
| 1777972803 | 13.89° C | 86% | 1013.2 hPa | 0 mm | 1.79 m/s, 359° | 39 W/m² | - |
| 1777972743 | 13.89° C | 86% | 1013.3 hPa | 0 mm | 1.79 m/s, 1° | 39 W/m² | - |
| 1777972683 | 13.33° C | 86% | 1013.3 hPa | 0 mm | 2.24 m/s, 360° | 37 W/m² | - |
| 1777972623 | 13.33° C | 86% | 1013.3 hPa | 0 mm | 1.79 m/s, 359° | 35 W/m² | - |
| 1777972563 | 13.33° C | 86% | 1013.3 hPa | 0 mm | 1.79 m/s, 360° | 35 W/m² | - |
| 1777972503 | 13.33° C | 86% | 1013.3 hPa | 0 mm | 1.79 m/s, 359° | 35 W/m² | - |
| 1777972443 | 13.33° C | 86% | 1013.3 hPa | 0 mm | 1.79 m/s, 357° | 35 W/m² | - |
| 1777972383 | 13.89° C | 86% | 1013.3 hPa | 0 mm | 1.79 m/s, 356° | 37 W/m² | - |
| 1777972332 | 13.89° C | 86% | 1013.2 hPa | 0 mm | 1.79 m/s, 355° | 42 W/m² | - |
* Rain latest hour (hover to see other rain measurements)
** Current wind speed in m/s (hover to see current wind gust speed)